• In Czech Republic
  • List of Countries
  • For 7 days
  • Water Temperature
  • Satellite Maps
  • Weather Map
  • Weather Widgets
  • user-avatar
    Login

    Hourly Weather Leatherhead

    Today, 23 November, Thursday

    Time Temperature Precipitation Wind Pressure Humidity
    00:00 +14°C° 0.3 mm 13 mps 735 mmHg 71%
    01:00 +13°C° 0.8 mm 13 mps 734 mmHg 73%
    02:00 +13°C° 0.8 mm 12 mps 734 mmHg 76%
    03:00 +13°C° 0.8 mm 12 mps 733 mmHg 79%
    04:00 +13°C° 0.6 mm 10 mps 734 mmHg 80%
    05:00 +12°C° 0.6 mm 9 mps 735 mmHg 82%
    06:00 +12°C° 0.6 mm 8 mps 735 mmHg 83%
    07:00 +11°C° 0.1 mm 8 mps 737 mmHg 80%
    08:00 +10°C° 0.1 mm 8 mps 738 mmHg 76%
    09:00 +9°C° 0.1 mm 7 mps 740 mmHg 73%
    10:00 +9°C° 0 mm 8 mps 741 mmHg 68%
    11:00 +9°C° 0 mm 8 mps 742 mmHg 63%
    12:00 +8°C° 0 mm 9 mps 743 mmHg 57%
    13:00 +9°C° 0 mm 8 mps 743 mmHg 58%
    14:00 +9°C° 0 mm 8 mps 744 mmHg 59%
    15:00 +9°C° 0 mm 7 mps 745 mmHg 60%
    16:00 +8°C° 0 mm 7 mps 746 mmHg 62%
    17:00 +8°C° 0 mm 6 mps 746 mmHg 64%
    18:00 +7°C° 0 mm 5 mps 747 mmHg 66%
    19:00 +7°C° 0.1 mm 4 mps 747 mmHg 68%
    20:00 +7°C° 0.1 mm 4 mps 747 mmHg 71%
    21:00 +8°C° 0.1 mm 3 mps 748 mmHg 73%
    22:00 +8°C° 0.8 mm 2 mps 747 mmHg 76%
    23:00 +7°C° 0.8 mm 2 mps 747 mmHg 79%

    Tomorrow, 24 November, Friday

    Time Temperature Precipitation Wind Pressure Humidity
    00:00 +7°C° 0.8 mm 2 mps 746 mmHg 82%
    01:00 +6°C° 1.3 mm 2 mps 746 mmHg 81%
    02:00 +5°C° 1.3 mm 3 mps 746 mmHg 79%
    03:00 +5°C° 1.3 mm 4 mps 746 mmHg 78%
    04:00 +5°C° 0.3 mm 4 mps 746 mmHg 76%
    05:00 +4°C° 0.3 mm 4 mps 747 mmHg 75%
    06:00 +4°C° 0.3 mm 3 mps 747 mmHg 74%
    07:00 +4°C° 0.1 mm 3 mps 748 mmHg 74%
    08:00 +5°C° 0.1 mm 3 mps 749 mmHg 75%
    09:00 +5°C° 0.1 mm 3 mps 750 mmHg 75%
    10:00 +5°C° 0 mm 3 mps 751 mmHg 71%
    11:00 +6°C° 0 mm 4 mps 752 mmHg 67%
    12:00 +6°C° 0 mm 4 mps 752 mmHg 62%
    13:00 +7°C° 0 mm 3 mps 753 mmHg 63%
    14:00 +7°C° 0 mm 3 mps 753 mmHg 64%
    15:00 +7°C° 0 mm 2 mps 753 mmHg 65%
    16:00 +6°C° 0 mm 2 mps 753 mmHg 68%
    17:00 +5°C° 0 mm 2 mps 754 mmHg 70%
    18:00 +5°C° 0 mm 2 mps 754 mmHg 73%
    19:00 +4°C° 0 mm 2 mps 754 mmHg 74%
    20:00 +5°C° 0 mm 1 mps 754 mmHg 75%
    21:00 +5°C° 0 mm 1 mps 754 mmHg 76%
    22:00 +5°C° 0 mm 1 mps 754 mmHg 77%
    23:00 +5°C° 0 mm 1 mps 754 mmHg 77%

    Day after tomorrow, 25 November, Saturday

    Time Temperature Precipitation Wind Pressure Humidity
    00:00 +5°C° 0 mm 1 mps 753 mmHg 77%
    01:00 +4°C° 0.1 mm 2 mps 753 mmHg 77%
    02:00 +3°C° 0.1 mm 2 mps 753 mmHg 77%
    03:00 +3°C° 0.1 mm 2 mps 753 mmHg 77%
    04:00 +3°C° 0 mm 2 mps 754 mmHg 76%
    05:00 +2°C° 0 mm 3 mps 754 mmHg 75%
    06:00 +2°C° 0 mm 3 mps 754 mmHg 74%
    07:00 +2°C° 0 mm 3 mps 754 mmHg 72%
    08:00 +2°C° 0 mm 3 mps 755 mmHg 71%
    09:00 +1°C° 0 mm 4 mps 755 mmHg 69%
    10:00 +3°C° 0 mm 4 mps 756 mmHg 66%
    11:00 +2°C° 0 mm 5 mps 756 mmHg 63%
    12:00 +3°C° 0 mm 6 mps 756 mmHg 60%
    13:00 +3°C° 0 mm 5 mps 757 mmHg 61%
    14:00 +3°C° 0 mm 5 mps 757 mmHg 62%
    15:00 +4°C° 0 mm 4 mps 757 mmHg 63%
    16:00 +3°C° 0 mm 4 mps 757 mmHg 65%
    17:00 +3°C° 0 mm 4 mps 757 mmHg 67%
    18:00 +1°C° 0 mm 4 mps 757 mmHg 68%
    19:00 +1°C° 0 mm 4 mps 758 mmHg 69%
    20:00 0°C° 0 mm 4 mps 758 mmHg 69%
    21:00 0°C° 0 mm 4 mps 759 mmHg 70%
    22:00 0°C° 0 mm 4 mps 759 mmHg 70%
    23:00 0°C° 0 mm 5 mps 759 mmHg 70%

    26 November, Sunday

    Time Temperature Precipitation Wind Pressure Humidity
    00:00 0°C° 0 mm 5 mps 759 mmHg 71%
    01:00 0°C° 0 mm 5 mps 759 mmHg 71%
    02:00 0°C° 0 mm 5 mps 759 mmHg 72%
    03:00 0°C° 0 mm 5 mps 759 mmHg 72%
    04:00 0°C° 0 mm 5 mps 759 mmHg 73%
    05:00 0°C° 0 mm 5 mps 760 mmHg 74%
    06:00 0°C° 0 mm 5 mps 760 mmHg 75%
    07:00 0°C° 0 mm 5 mps 760 mmHg 74%
    08:00 +1°C° 0 mm 5 mps 760 mmHg 74%
    09:00 +1°C° 0 mm 5 mps 761 mmHg 74%
    10:00 +2°C° 0 mm 6 mps 761 mmHg 70%
    11:00 +3°C° 0 mm 6 mps 761 mmHg 67%
    12:00 +4°C° 0 mm 6 mps 761 mmHg 64%
    13:00 +5°C° 0 mm 5 mps 761 mmHg 65%
    14:00 +5°C° 0 mm 5 mps 761 mmHg 67%
    15:00 +5°C° 0 mm 4 mps 761 mmHg 69%
    16:00 +4°C° 0 mm 4 mps 761 mmHg 70%
    17:00 +4°C° 0 mm 4 mps 761 mmHg 72%
    18:00 +3°C° 0 mm 4 mps 761 mmHg 74%
    19:00 +3°C° 0 mm 4 mps 761 mmHg 75%
    20:00 +1°C° 0 mm 4 mps 762 mmHg 77%
    21:00 +1°C° 0 mm 4 mps 762 mmHg 78%
    22:00 +1°C° 0 mm 4 mps 761 mmHg 79%
    23:00 +2°C° 0 mm 3 mps 761 mmHg 79%

    27 November, Monday

    Time Temperature Precipitation Wind Pressure Humidity
    00:00 +1°C° 0 mm 3 mps 761 mmHg 80%
    01:00 +1°C° 0 mm 4 mps 761 mmHg 79%
    02:00 +1°C° 0 mm 4 mps 760 mmHg 79%
    03:00 +3°C° 0 mm 4 mps 760 mmHg 79%
    04:00 +2°C° 0 mm 5 mps 759 mmHg 80%
    05:00 +3°C° 0 mm 5 mps 758 mmHg 81%
    06:00 +4°C° 0 mm 6 mps 758 mmHg 82%
    07:00 +4°C° 0.5 mm 6 mps 757 mmHg 83%
    08:00 +5°C° 0.5 mm 7 mps 757 mmHg 84%
    09:00 +5°C° 0.5 mm 8 mps 756 mmHg 85%
    10:00 +6°C° 0.3 mm 7 mps 756 mmHg 81%
    11:00 +6°C° 0.3 mm 7 mps 756 mmHg 77%
    12:00 +8°C° 0.3 mm 7 mps 755 mmHg 73%
    13:00 +7°C° 0 mm 6 mps 755 mmHg 72%
    14:00 +7°C° 0 mm 5 mps 755 mmHg 72%
    15:00 +6°C° 0 mm 5 mps 755 mmHg 71%
    16:00 +6°C° 0 mm 4 mps 754 mmHg 74%
    17:00 +5°C° 0 mm 4 mps 754 mmHg 76%
    18:00 +5°C° 0 mm 4 mps 754 mmHg 79%
    19:00 +5°C° 0 mm 4 mps 754 mmHg 79%
    20:00 +5°C° 0 mm 4 mps 754 mmHg 80%
    21:00 +5°C° 0 mm 4 mps 753 mmHg 81%
    22:00 +5°C° 0.1 mm 4 mps 753 mmHg 82%
    23:00 +5°C° 0.1 mm 4 mps 752 mmHg 84%

    28 November, Tuesday

    Time Temperature Precipitation Wind Pressure Humidity
    00:00 +5°C° 0.1 mm 4 mps 751 mmHg 85%
    01:00 +5°C° 0.2 mm 5 mps 750 mmHg 85%
    02:00 +6°C° 0.2 mm 5 mps 749 mmHg 85%
    03:00 +5°C° 0.2 mm 6 mps 748 mmHg 86%
    04:00 +5°C° 0.5 mm 6 mps 748 mmHg 83%
    05:00 +4°C° 0.5 mm 6 mps 747 mmHg 80%
    06:00 +5°C° 0.5 mm 5 mps 746 mmHg 77%
    07:00 +5°C° 0 mm 5 mps 746 mmHg 77%
    08:00 +5°C° 0 mm 5 mps 746 mmHg 78%
    09:00 +3°C° 0 mm 5 mps 746 mmHg 78%
    10:00 +5°C° 0 mm 5 mps 746 mmHg 77%
    11:00 +6°C° 0 mm 5 mps 746 mmHg 76%
    12:00 +7°C° 0 mm 5 mps 746 mmHg 75%
    13:00 +6°C° 0 mm 5 mps 746 mmHg 75%
    14:00 +6°C° 0 mm 4 mps 746 mmHg 76%
    15:00 +7°C° 0 mm 3 mps 746 mmHg 77%
    16:00 +5°C° 0 mm 3 mps 746 mmHg 79%
    17:00 +4°C° 0 mm 3 mps 747 mmHg 81%
    18:00 +3°C° 0 mm 3 mps 747 mmHg 84%
    19:00 +3°C° 0 mm 3 mps 747 mmHg 84%
    20:00 +2°C° 0 mm 3 mps 747 mmHg 85%
    21:00 +2°C° 0 mm 3 mps 747 mmHg 86%
    22:00 +2°C° 0 mm 3 mps 747 mmHg 87%
    23:00 +1°C° 0 mm 3 mps 747 mmHg 88%
    Show more